OYXWB EKVH-EKVH

Flight info

Callsign OYXWB
Flight time 0h 32m
Altitude 3000
Route EKVH
Aircraft DV20/L-SDE2E3FGHIJ1RWXY/LB1

Departure

Time 2026-05-05 16:34
Airport Vesthimmerland Airfield (EKVH)

Arrival

Time 2026-05-05 17:06
Airport Vesthimmerland Airfield (EKVH)
Time Latitude Longitude Altitude Speed Heading
2026-05-05 16:27 56.84768 9.46571 111 ft 0 kts 289°
2026-05-05 16:30 56.84769 9.46569 110 ft 0 kts 288°
2026-05-05 16:30 56.84763 9.46535 110 ft 6 kts 212°
2026-05-05 16:31 56.84723 9.46529 110 ft 8 kts 156°
2026-05-05 16:31 56.84659 9.46527 107 ft 11 kts 198°
2026-05-05 16:31 56.84597 9.46478 103 ft 8 kts 254°
2026-05-05 16:31 56.84605 9.46432 104 ft 0 kts 283°
2026-05-05 16:32 56.84605 9.46431 104 ft 1 kts 283°
2026-05-05 16:32 56.84627 9.46299 105 ft 21 kts 287°
2026-05-05 16:32 56.84698 9.45863 106 ft 52 kts 286°
2026-05-05 16:32 56.84824 9.45114 170 ft 64 kts 287°
2026-05-05 16:33 56.84966 9.44355 304 ft 62 kts 291°
2026-05-05 16:33 56.85260 9.43877 420 ft 63 kts
2026-05-05 16:33 56.85705 9.44130 501 ft 70 kts 17°
2026-05-05 16:33 56.86173 9.44418 621 ft 71 kts 18°
2026-05-05 16:34 56.86653 9.44739 700 ft 79 kts 19°
2026-05-05 16:34 56.87126 9.45342 753 ft 88 kts 60°
2026-05-05 16:34 56.87260 9.46393 898 ft 87 kts 82°
2026-05-05 16:34 56.87310 9.47528 993 ft 90 kts 86°
2026-05-05 16:35 56.87244 9.48643 1098 ft 92 kts 115°
2026-05-05 16:35 56.86782 9.49397 1217 ft 89 kts 164°
2026-05-05 16:35 56.86179 9.49443 1357 ft 86 kts 182°
2026-05-05 16:35 56.85581 9.49334 1474 ft 86 kts 191°
2026-05-05 16:36 56.84996 9.49104 1574 ft 87 kts 195°
2026-05-05 16:36 56.84436 9.48720 1684 ft 89 kts 222°
2026-05-05 16:36 56.84412 9.47632 1753 ft 90 kts 292°
2026-05-05 16:36 56.84592 9.46657 1974 ft 85 kts 287°
2026-05-05 16:37 56.84765 9.45639 2182 ft 81 kts 285°
2026-05-05 16:37 56.84927 9.44600 2275 ft 88 kts 286°
2026-05-05 16:37 56.85079 9.43560 2443 ft 85 kts 284°
2026-05-05 16:37 56.85272 9.42520 2571 ft 85 kts 291°
2026-05-05 16:38 56.85515 9.41529 2691 ft 87 kts 295°
2026-05-05 16:38 56.85781 9.40545 2838 ft 86 kts 296°
2026-05-05 16:38 56.86080 9.39610 3006 ft 84 kts 303°
2026-05-05 16:38 56.86419 9.38715 3120 ft 88 kts 304°
2026-05-05 16:39 56.86785 9.37752 3152 ft 97 kts 304°
2026-05-05 16:39 56.87200 9.36776 3414 ft 92 kts 306°
2026-05-05 16:39 56.87591 9.35925 3532 ft 86 kts 306°
2026-05-05 16:39 56.88053 9.35202 3562 ft 92 kts 322°
2026-05-05 16:40 56.88652 9.34734 3597 ft 94 kts 338°
2026-05-05 16:40 56.89319 9.34583 3623 ft 99 kts 352°
2026-05-05 16:40 56.90005 9.34740 3669 ft 102 kts
2026-05-05 16:40 56.90674 9.35271 3686 ft 107 kts 25°
2026-05-05 16:41 56.91234 9.36203 3705 ft 113 kts 45°
2026-05-05 16:41 56.91630 9.37456 3779 ft 114 kts 63°
2026-05-05 16:41 56.91820 9.38889 3807 ft 118 kts 81°
2026-05-05 16:41 56.91792 9.40395 3832 ft 120 kts 99°
2026-05-05 16:42 56.91575 9.41860 3862 ft 119 kts 108°
2026-05-05 16:42 56.91316 9.43311 3860 ft 121 kts 110°
2026-05-05 16:42 56.91026 9.44753 3892 ft 121 kts 112°
2026-05-05 16:42 56.90711 9.46173 3855 ft 121 kts 114°
2026-05-05 16:43 56.90353 9.47552 3852 ft 119 kts 118°
2026-05-05 16:43 56.89972 9.48898 3834 ft 119 kts 119°
2026-05-05 16:43 56.89608 9.50266 3822 ft 119 kts 117°
2026-05-05 16:43 56.89258 9.51635 3795 ft 120 kts 117°
2026-05-05 16:44 56.88897 9.53014 3791 ft 119 kts 118°
2026-05-05 16:44 56.88511 9.54362 3761 ft 121 kts 122°
2026-05-05 16:44 56.88238 9.55241 3762 ft 119 kts 122°
2026-05-05 16:44 56.87810 9.56530 3745 ft 119 kts 126°
2026-05-05 16:45 56.87336 9.57770 3765 ft 118 kts 130°
2026-05-05 16:45 56.86651 9.59309 3763 ft 118 kts 136°
2026-05-05 16:45 56.86276 9.60044 3774 ft 117 kts 139°
2026-05-05 16:45 56.85691 9.61071 3757 ft 117 kts 143°
2026-05-05 16:46 56.85071 9.62023 3760 ft 116 kts 148°
2026-05-05 16:46 56.84419 9.62885 3751 ft 115 kts 153°
2026-05-05 16:46 56.83925 9.63977 3814 ft 116 kts 102°
2026-05-05 16:46 56.84172 9.65365 3683 ft 120 kts 44°
2026-05-05 16:47 56.84767 9.66264 3730 ft 106 kts 21°
2026-05-05 16:47 56.85390 9.66940 3768 ft 103 kts 20°
2026-05-05 16:47 56.86011 9.67632 3759 ft 106 kts 25°
2026-05-05 16:47 56.86589 9.68469 3791 ft 107 kts 36°
2026-05-05 16:48 56.87139 9.69447 3740 ft 113 kts 37°
2026-05-05 16:48 56.87696 9.70454 3753 ft 112 kts 37°
2026-05-05 16:48 56.88268 9.71397 3752 ft 110 kts 29°
2026-05-05 16:48 56.88882 9.72201 3763 ft 108 kts 26°
2026-05-05 16:49 56.89494 9.72971 3767 ft 105 kts 23°
2026-05-05 16:49 56.90137 9.73563 3800 ft 100 kts 13°
2026-05-05 16:49 56.90769 9.74054 3839 ft 100 kts 18°
2026-05-05 16:49 56.91366 9.74775 3878 ft 103 kts 27°
2026-05-05 16:50 56.91954 9.75585 3859 ft 106 kts 29°
2026-05-05 16:50 56.92521 9.76404 3893 ft 106 kts 30°
2026-05-05 16:50 56.93092 9.77254 3918 ft 105 kts 31°
2026-05-05 16:50 56.93663 9.78113 3914 ft 107 kts 32°
2026-05-05 16:51 56.94241 9.78977 3927 ft 107 kts 30°
2026-05-05 16:51 56.94818 9.79832 3944 ft 107 kts 30°
2026-05-05 16:51 56.95202 9.80435 3960 ft 108 kts 34°
2026-05-05 16:51 56.95331 9.80651 3968 ft 107 kts 34°
2026-05-05 16:52 56.95732 9.81395 3989 ft 109 kts 44°
2026-05-05 16:52 56.95924 9.82736 4024 ft 117 kts 98°
2026-05-05 16:52 56.95493 9.83950 4008 ft 115 kts 154°
2026-05-05 16:52 56.94761 9.84159 3988 ft 101 kts 207°
2026-05-05 16:53 56.94317 9.83360 3998 ft 88 kts 252°
2026-05-05 16:53 56.94111 9.82357 4075 ft 82 kts 257°
2026-05-05 16:53 56.93988 9.81313 4060 ft 85 kts 265°
2026-05-05 16:53 56.93945 9.80269 4107 ft 83 kts 269°
2026-05-05 16:54 56.93942 9.79202 4096 ft 83 kts 273°
2026-05-05 16:54 56.93986 9.78153 4107 ft 83 kts 277°
2026-05-05 16:54 56.94074 9.77101 4112 ft 83 kts 280°
2026-05-05 16:54 56.94204 9.76068 4110 ft 84 kts 284°
2026-05-05 16:55 56.94381 9.75044 4119 ft 84 kts 288°
2026-05-05 16:55 56.94599 9.74057 4119 ft 84 kts 291°
2026-05-05 16:55 56.94854 9.73092 4132 ft 83 kts 294°
2026-05-05 16:55 56.95122 9.72165 4128 ft 84 kts 295°
2026-05-05 16:56 56.95407 9.71242 4156 ft 82 kts 296°
2026-05-05 16:56 56.95712 9.70339 4142 ft 85 kts 298°
2026-05-05 16:56 56.96040 9.69464 4178 ft 83 kts 301°
2026-05-05 16:56 56.96384 9.68603 4154 ft 85 kts 302°
2026-05-05 16:57 56.96744 9.67755 4187 ft 84 kts 303°
2026-05-05 16:57 56.97113 9.66918 4181 ft 85 kts 303°
2026-05-05 16:57 56.97494 9.66102 4188 ft 85 kts 306°
2026-05-05 16:57 56.98083 9.66095 4206 ft 109 kts 37°
2026-05-05 16:58 56.98120 9.67424 4259 ft 112 kts 130°
2026-05-05 16:58 56.97488 9.67724 4226 ft 95 kts 212°
2026-05-05 16:58 56.96921 9.67128 4232 ft 89 kts 224°
2026-05-05 16:58 56.96446 9.66423 4212 ft 90 kts 230°
2026-05-05 16:59 56.95980 9.65661 4186 ft 90 kts 230°
2026-05-05 16:59 56.95491 9.64904 4121 ft 92 kts 227°
2026-05-05 16:59 56.94971 9.64208 4083 ft 92 kts 223°
2026-05-05 16:59 56.94440 9.63569 4027 ft 92 kts 222°
2026-05-05 17:00 56.93890 9.62943 3966 ft 94 kts 221°
2026-05-05 17:00 56.93332 9.62333 3934 ft 92 kts 221°
2026-05-05 17:00 56.92787 9.61715 3871 ft 92 kts 223°
2026-05-05 17:00 56.92250 9.61057 3805 ft 94 kts 223°
2026-05-05 17:01 56.91711 9.60393 3771 ft 93 kts 224°
2026-05-05 17:01 56.91178 9.59723 3711 ft 93 kts 225°
2026-05-05 17:01 56.90656 9.59034 3652 ft 92 kts 226°
2026-05-05 17:01 56.90151 9.58314 3576 ft 92 kts 229°
2026-05-05 17:02 56.89682 9.57554 3532 ft 90 kts 232°
2026-05-05 17:02 56.89244 9.56750 3478 ft 89 kts 235°
2026-05-05 17:02 56.88822 9.55919 3351 ft 90 kts 236°
2026-05-05 17:02 56.88416 9.55063 3237 ft 88 kts 238°
2026-05-05 17:03 56.88026 9.54198 3103 ft 87 kts 240°
2026-05-05 17:03 56.87555 9.53507 2930 ft 98 kts 198°
2026-05-05 17:03 56.86892 9.53360 2782 ft 90 kts 199°
2026-05-05 17:03 56.86267 9.53175 2538 ft 93 kts 201°
2026-05-05 17:04 56.85642 9.52939 2312 ft 90 kts 205°
2026-05-05 17:04 56.85026 9.52633 2045 ft 90 kts 207°
2026-05-05 17:04 56.84450 9.52301 1822 ft 84 kts 212°
2026-05-05 17:04 56.83945 9.51958 1645 ft 76 kts 219°
2026-05-05 17:05 56.83748 9.51329 1448 ft 60 kts 296°
2026-05-05 17:05 56.83906 9.50609 1245 ft 62 kts 286°
2026-05-05 17:05 56.84039 9.49833 1027 ft 67 kts 286°
2026-05-05 17:05 56.84168 9.49009 841 ft 67 kts 288°
2026-05-05 17:06 56.84310 9.48174 586 ft 67 kts 276°
2026-05-05 17:06 56.84436 9.47399 320 ft 62 kts 274°
2026-05-05 17:06 56.84566 9.46666 123 ft 59 kts 290°
2026-05-05 17:06 56.84666 9.46060 106 ft 40 kts 288°
2026-05-05 17:07 56.84724 9.45760 104 ft 11 kts 304°
2026-05-05 17:07 56.84717 9.45752 104 ft 3 kts 101°
2026-05-05 17:07 56.84705 9.45821 105 ft 8 kts 108°
2026-05-05 17:07 56.84678 9.45998 107 ft 32 kts 110°
2026-05-05 17:08 56.84611 9.46393 104 ft 19 kts 109°
2026-05-05 17:08 56.84631 9.46508 105 ft 14 kts 17°
2026-05-05 17:08 56.84727 9.46499 110 ft 12 kts 299°
2026-05-05 17:08 56.84750 9.46478 110 ft 0 kts 117°